Location: Forst
(46.9333°N, 15.4333°E)
Time: 23:52:13
(UTC+00:00)

Lacrosse 5 rocket - Pass Details

Date: 18 April 2021
Orbit: 460 x 634 km, 57.0° (Epoch: 11 May)

Event Time Altitude Azimuth Distance (km) Brightness Sun altitude
Rises 19:26:33 0° 281° (W) 2,682 6.1 -15.4°
Reaches altitude 10° 19:29:05 10° 296° (WNW) 1,826 5.3 -15.7°
Maximum altitude 19:32:26 23° 350° (N) 1,233 3.6 -16.2°
Drops below altitude 10° 19:35:55 10° 43° (NE) 1,916 4.0 -16.6°
Sets 19:38:39 0° 58° (ENE) 2,850 4.8 -17.0°
Enters shadow 19:38:42 - 59° (ENE) 2,870 4.8 -17.0°
